• In Hungary
  • List of Countries
  • For 7 days
  • Water Temperature
  • Satellite Maps
  • Weather Map
  • News
  • Weather Widgets
  • user-avatar
    Login

    Hourly Weather Rogin

    Today, 24 November, Friday

    Time Temperature Precipitation Wind Pressure Humidity
    00:00 -4°C° 0 mm 2 mps 754 mmHg 75%
    01:00 -4°C° 0 mm 2 mps 754 mmHg 75%
    02:00 -2°C° 0 mm 1 mps 754 mmHg 76%
    03:00 -2°C° 0 mm 1 mps 754 mmHg 76%
    04:00 -4°C° 0 mm 2 mps 754 mmHg 76%
    05:00 -4°C° 0 mm 2 mps 754 mmHg 76%
    06:00 -4°C° 0 mm 2 mps 754 mmHg 75%
    07:00 -5°C° 0 mm 3 mps 754 mmHg 74%
    08:00 -5°C° 0 mm 3 mps 754 mmHg 73%
    09:00 -4°C° 0 mm 3 mps 754 mmHg 68%
    10:00 -4°C° 0 mm 4 mps 754 mmHg 64%
    11:00 -3°C° 0 mm 4 mps 754 mmHg 59%
    12:00 -2°C° 0 mm 4 mps 754 mmHg 58%
    13:00 -2°C° 0 mm 4 mps 754 mmHg 56%
    14:00 -2°C° 0 mm 4 mps 754 mmHg 55%
    15:00 -2°C° 0 mm 4 mps 754 mmHg 58%
    16:00 -3°C° 0 mm 4 mps 754 mmHg 62%
    17:00 -4°C° 0 mm 4 mps 754 mmHg 65%
    18:00 -4°C° 0 mm 4 mps 754 mmHg 65%
    19:00 -4°C° 0 mm 4 mps 754 mmHg 66%
    20:00 -3°C° 0 mm 4 mps 754 mmHg 66%
    21:00 -3°C° 0 mm 4 mps 754 mmHg 67%
    22:00 -3°C° 0 mm 4 mps 754 mmHg 67%
    23:00 -3°C° 0 mm 4 mps 754 mmHg 68%

    Tomorrow, 25 November, Saturday

    Time Temperature Precipitation Wind Pressure Humidity
    00:00 -3°C° 0 mm 4 mps 753 mmHg 70%
    01:00 -3°C° 0 mm 4 mps 753 mmHg 71%
    02:00 -3°C° 0 mm 4 mps 753 mmHg 73%
    03:00 -3°C° 0 mm 4 mps 753 mmHg 77%
    04:00 -3°C° 0 mm 4 mps 752 mmHg 80%
    05:00 -4°C° 0 mm 4 mps 752 mmHg 83%
    06:00 -4°C° 0 mm 4 mps 752 mmHg 86%
    07:00 -4°C° 0 mm 3 mps 752 mmHg 89%
    08:00 -4°C° 0 mm 3 mps 752 mmHg 92%
    09:00 -2°C° 0 mm 3 mps 752 mmHg 91%
    10:00 -1°C° 0 mm 3 mps 752 mmHg 89%
    11:00 0°C° 0 mm 3 mps 752 mmHg 87%
    12:00 0°C° 0 mm 3 mps 751 mmHg 87%
    13:00 +1°C° 0 mm 3 mps 751 mmHg 86%
    14:00 +1°C° 0 mm 3 mps 751 mmHg 86%
    15:00 0°C° 0 mm 3 mps 751 mmHg 89%
    16:00 0°C° 0 mm 3 mps 751 mmHg 92%
    17:00 0°C° 0 mm 3 mps 751 mmHg 94%
    18:00 0°C° 0 mm 3 mps 751 mmHg 95%
    19:00 0°C° 0 mm 3 mps 751 mmHg 96%
    20:00 0°C° 0 mm 3 mps 751 mmHg 96%
    21:00 0°C° 0 mm 3 mps 751 mmHg 96%
    22:00 +1°C° 0 mm 3 mps 751 mmHg 96%
    23:00 +1°C° 0 mm 3 mps 751 mmHg 96%

    Day after tomorrow, 26 November, Sunday

    Time Temperature Precipitation Wind Pressure Humidity
    00:00 0°C° 0 mm 4 mps 751 mmHg 96%
    01:00 0°C° 0 mm 4 mps 751 mmHg 96%
    02:00 0°C° 0 mm 4 mps 751 mmHg 96%
    03:00 0°C° 0 mm 4 mps 750 mmHg 95%
    04:00 0°C° 0 mm 5 mps 750 mmHg 95%
    05:00 0°C° 0 mm 5 mps 750 mmHg 95%
    06:00 0°C° 0 mm 5 mps 750 mmHg 95%
    07:00 -1°C° 0 mm 5 mps 750 mmHg 94%
    08:00 -1°C° 0 mm 5 mps 750 mmHg 94%
    09:00 0°C° 0 mm 5 mps 750 mmHg 93%
    10:00 +1°C° 0 mm 5 mps 750 mmHg 93%
    11:00 +1°C° 0 mm 5 mps 750 mmHg 92%
    12:00 +1°C° 0 mm 5 mps 750 mmHg 92%
    13:00 +1°C° 0 mm 5 mps 750 mmHg 93%
    14:00 +1°C° 0 mm 5 mps 750 mmHg 93%
    15:00 +1°C° 0.1 mm 5 mps 750 mmHg 94%
    16:00 +1°C° 0.1 mm 5 mps 750 mmHg 94%
    17:00 +1°C° 0.1 mm 5 mps 750 mmHg 94%
    18:00 +1°C° 0.3 mm 5 mps 751 mmHg 94%
    19:00 +1°C° 0.3 mm 5 mps 751 mmHg 94%
    20:00 +1°C° 0.3 mm 5 mps 751 mmHg 94%
    21:00 +1°C° 0.4 mm 5 mps 751 mmHg 93%
    22:00 +1°C° 0.4 mm 5 mps 751 mmHg 92%
    23:00 +1°C° 0.4 mm 6 mps 751 mmHg 91%

    27 November, Monday

    Time Temperature Precipitation Wind Pressure Humidity
    00:00 +1°C° 0.3 mm 6 mps 751 mmHg 90%
    01:00 +1°C° 0.3 mm 5 mps 751 mmHg 88%
    02:00 +1°C° 0.3 mm 5 mps 751 mmHg 87%
    03:00 0°C° 0.1 mm 5 mps 751 mmHg 85%
    04:00 0°C° 0.1 mm 5 mps 751 mmHg 84%
    05:00 0°C° 0.1 mm 5 mps 751 mmHg 82%
    06:00 -1°C° 0.2 mm 5 mps 751 mmHg 83%
    07:00 -1°C° 0.2 mm 5 mps 751 mmHg 83%
    08:00 -1°C° 0.2 mm 5 mps 752 mmHg 84%
    09:00 -1°C° 0.4 mm 5 mps 752 mmHg 85%
    10:00 -1°C° 0.4 mm 5 mps 752 mmHg 85%
    11:00 -1°C° 0.4 mm 5 mps 752 mmHg 86%
    12:00 -1°C° 0.5 mm 5 mps 752 mmHg 87%
    13:00 -1°C° 0.5 mm 4 mps 752 mmHg 88%
    14:00 -1°C° 0.5 mm 4 mps 752 mmHg 89%
    15:00 -1°C° 0.5 mm 4 mps 752 mmHg 90%
    16:00 0°C° 0.5 mm 3 mps 752 mmHg 92%
    17:00 0°C° 0.5 mm 3 mps 752 mmHg 93%
    18:00 0°C° 0.5 mm 3 mps 752 mmHg 93%
    19:00 0°C° 0.5 mm 3 mps 752 mmHg 94%
    20:00 0°C° 0.5 mm 3 mps 753 mmHg 95%
    21:00 +1°C° 0.4 mm 2 mps 753 mmHg 95%
    22:00 +1°C° 0.4 mm 2 mps 753 mmHg 96%
    23:00 +1°C° 0.4 mm 2 mps 753 mmHg 96%

    28 November, Tuesday

    Time Temperature Precipitation Wind Pressure Humidity
    00:00 +1°C° 0.4 mm 2 mps 753 mmHg 96%
    01:00 +1°C° 0.4 mm 2 mps 753 mmHg 96%
    02:00 +1°C° 0.4 mm 2 mps 753 mmHg 96%
    03:00 +1°C° 0.3 mm 1 mps 753 mmHg 96%
    04:00 +1°C° 0.3 mm 1 mps 753 mmHg 96%
    05:00 +1°C° 0.3 mm 1 mps 753 mmHg 96%
    06:00 +1°C° 0.2 mm 1 mps 753 mmHg 96%
    07:00 0°C° 0.2 mm 1 mps 754 mmHg 96%
    08:00 0°C° 0.2 mm 1 mps 754 mmHg 96%
    09:00 +1°C° 0.1 mm 1 mps 754 mmHg 95%
    10:00 +1°C° 0.1 mm 1 mps 754 mmHg 95%
    11:00 +1°C° 0.1 mm 1 mps 754 mmHg 95%
    12:00 +1°C° 0 mm 1 mps 754 mmHg 96%
    13:00 +2°C° 0 mm 1 mps 753 mmHg 96%
    14:00 +1°C° 0 mm 0 mps 753 mmHg 97%
    15:00 +1°C° 0 mm 1 mps 753 mmHg 97%
    16:00 +1°C° 0 mm 1 mps 753 mmHg 97%
    17:00 +1°C° 0 mm 1 mps 753 mmHg 97%
    18:00 +1°C° 0 mm 1 mps 753 mmHg 97%
    19:00 -1°C° 0 mm 2 mps 753 mmHg 97%
    20:00 -1°C° 0 mm 2 mps 753 mmHg 97%
    21:00 -1°C° 0 mm 2 mps 753 mmHg 97%
    22:00 -1°C° 0 mm 2 mps 753 mmHg 96%
    23:00 -1°C° 0 mm 2 mps 753 mmHg 96%

    29 November, Wednesday

    Time Temperature Precipitation Wind Pressure Humidity
    00:00 -1°C° 0.1 mm 2 mps 753 mmHg 96%
    01:00 -1°C° 0.1 mm 2 mps 752 mmHg 95%
    02:00 -1°C° 0.1 mm 2 mps 752 mmHg 95%
    03:00 -1°C° 0 mm 3 mps 752 mmHg 95%
    04:00 -1°C° 0 mm 3 mps 752 mmHg 95%
    05:00 -1°C° 0 mm 3 mps 752 mmHg 94%
    06:00 -1°C° 0 mm 3 mps 751 mmHg 94%
    07:00 -2°C° 0 mm 4 mps 751 mmHg 93%
    08:00 -2°C° 0 mm 4 mps 751 mmHg 93%
    09:00 -2°C° 0.1 mm 4 mps 751 mmHg 92%
    10:00 -2°C° 0.1 mm 4 mps 751 mmHg 91%
    11:00 -2°C° 0.1 mm 4 mps 751 mmHg 89%
    12:00 -2°C° 0.2 mm 4 mps 750 mmHg 89%
    13:00 -2°C° 0.2 mm 4 mps 750 mmHg 89%
    14:00 -2°C° 0.2 mm 4 mps 750 mmHg 88%
    15:00 -3°C° 0 mm 4 mps 750 mmHg 88%
    16:00 -3°C° 0 mm 4 mps 750 mmHg 88%
    17:00 -4°C° 0 mm 4 mps 749 mmHg 88%
    18:00 -4°C° 0 mm 4 mps 749 mmHg 87%
    19:00 -5°C° 0 mm 5 mps 749 mmHg 86%
    20:00 -5°C° 0 mm 5 mps 749 mmHg 86%
    21:00 -5°C° 0 mm 5 mps 749 mmHg 86%
    22:00 -5°C° 0 mm 5 mps 749 mmHg 87%
    23:00 -5°C° 0 mm 5 mps 748 mmHg 87%
    Show more